DW8618 Nerja ES current weather conditions

sailwx.info

Wind from 242 at 0 knots gusting 3

Air temperature 28.9° C
Dewpoint 22.9° C

Last reported at 2015-Aug-03 16:45 UTC.
Time now 2015-Aug-03 17:08 UTC

Location: N 36°46' W 003°52'.
View on Google Maps.

See reports from other nearby stations

  
Tides and Currents Weather Stations Pressure Air Temp Water Temp Dewpoint Dewpoint Depression Visibility Wind Speed Wind Dir Waves Ship Positions
date/time (UTC)wind fromknots sea level pressurealtimeterstation pressurevisibilityair tempwater tempwave heightnotes
2015-Aug-03 16:45 242 0 gusting 3 28.9
2015-Aug-03 16:31 242 28.3
2015-Aug-03 16:15 186 4 gusting 7 27.8
2015-Aug-03 16:01 171 1 gusting 6 27.8
2015-Aug-03 15:45 171 3 gusting 7 27.8
2015-Aug-03 15:30 180 3 gusting 6 28.3
2015-Aug-03 15:16 156 3 gusting 7 28.3
2015-Aug-03 15:01 187 1 gusting 5 28.3
2015-Aug-03 14:46 179 0 gusting 8 28.3
2015-Aug-03 14:31 173 5 gusting 6 28.3
2015-Aug-03 14:15 202 1 gusting 7 27.8
2015-Aug-03 14:01 196 4 gusting 6 28.3
2015-Aug-03 13:45 168 2 gusting 7 28.3
2015-Aug-03 13:30 205 1 gusting 6 28.3
2015-Aug-03 13:16 168 2 gusting 8 27.8
2015-Aug-03 13:01 200 1 gusting 8 28.3
2015-Aug-03 12:46 196 1 gusting 8 28.9
2015-Aug-03 12:30 241 3 gusting 10 29.4
2015-Aug-03 12:15 215 3 gusting 8 28.3
2015-Aug-03 12:01 201 2 gusting 8 28.3
2015-Aug-03 11:45 190 5 gusting 8 28.9
2015-Aug-03 11:30 205 3 gusting 6 28.9
2015-Aug-03 11:15 223 1 gusting 6 28.3
2015-Aug-03 11:01 242 1 gusting 7 28.3
2015-Aug-03 10:45 176 1 gusting 7 27.8
2015-Aug-03 10:30 179 2 gusting 6 27.8
2015-Aug-03 10:16 190 2 gusting 6 27.8
2015-Aug-03 10:01 168 27.8
2015-Aug-03 09:46 171 4 gusting 6 27.8
2015-Aug-03 09:31 171 2 gusting 6 27.8
2015-Aug-03 09:15 159 1 gusting 6 27.8
2015-Aug-03 09:01 171 2 gusting 6 27.8
2015-Aug-03 08:46 198 1 gusting 4 27.8
2015-Aug-03 08:30 232 28.3
2015-Aug-03 08:16 344 27.8
2015-Aug-03 08:01 344 27.8
2015-Aug-03 07:45 344 26.7
2015-Aug-03 07:30 344 26.7
2015-Aug-03 07:15 342 0 gusting 2 26.1
2015-Aug-03 07:01 355 26.1
2015-Aug-03 06:46 355 26.1
2015-Aug-03 06:30 355 26.1
2015-Aug-03 06:15 355 26.1
2015-Aug-03 06:01 355 26.1
2015-Aug-03 05:45 355 26.1
2015-Aug-03 05:30 355 25.6
2015-Aug-03 05:16 355 25.6
2015-Aug-03 05:01 355 25.6
2015-Aug-03 04:46 355 25.6
2015-Aug-03 04:30 355 25.6
2015-Aug-03 04:16 355 25.6
2015-Aug-03 04:01 355 25.6
2015-Aug-03 03:46 355 26.1
2015-Aug-03 03:30 355 26.1
2015-Aug-03 03:15 355 26.1
2015-Aug-03 03:01 355 26.1
2015-Aug-03 02:45 355 26.1
2015-Aug-03 02:31 355 26.1
2015-Aug-03 02:15 355 26.1
2015-Aug-03 02:01 355 26.1
2015-Aug-03 01:46 355 1 gusting 4 26.1
2015-Aug-03 01:30 149 26.1
2015-Aug-03 01:15 148 26.1
2015-Aug-03 01:01 065 26.1
2015-Aug-03 00:45 306 26.7
2015-Aug-03 00:31 341 1 gusting 6 26.7
2015-Aug-03 00:15 311 0 gusting 3 26.7
2015-Aug-03 00:01 286 26.7
2015-Aug-02 23:45 281 26.7
2015-Aug-02 23:30 208 26.7
2015-Aug-02 23:16 175 26.1
2015-Aug-02 23:01 039 26.1
2015-Aug-02 22:46 148 26.1
2015-Aug-02 22:30 197 0 gusting 7 26.1
2015-Aug-02 22:01 155 26.7
2015-Aug-02 21:45 144 26.7
2015-Aug-02 21:30 137 0 gusting 6 26.7
2015-Aug-02 21:01 138 26.7
2015-Aug-02 20:45 172 26.7
2015-Aug-02 20:30 141 0 gusting 6 26.7
2015-Aug-02 20:16 173 0 gusting 6 26.7
2015-Aug-02 20:01 115 26.7
2015-Aug-02 19:45 165 26.7
2015-Aug-02 19:31 167 26.7
2015-Aug-02 19:15 170 26.7
2015-Aug-02 19:01 170 26.7
2015-Aug-02 18:45 170 27.2
2015-Aug-02 18:30 170 27.2
2015-Aug-02 18:15 173 27.2
2015-Aug-02 18:01 161 27.2
2015-Aug-02 17:45 174 27.2
2015-Aug-02 17:30 165 27.2
2015-Aug-02 17:16 182 3 gusting 7 27.2
2015-Aug-02 17:01 171 3 gusting 7 27.2
2015-Aug-02 16:46 131 27.8
2015-Aug-02 16:30 180 2 gusting 7 27.8
2015-Aug-02 16:15 175 3 gusting 7 27.8
2015-Aug-02 16:01 128 3 gusting 9 27.8
2015-Aug-02 15:45 162 1 gusting 7 27.8
2015-Aug-02 15:30 181 1 gusting 7 27.8
2015-Aug-02 15:15 184 28.3
2015-Aug-02 15:01 153 2 gusting 7 28.3
2015-Aug-02 14:46 134 3 gusting 13 28.3
2015-Aug-02 14:30 163 0 gusting 7 28.9
2015-Aug-02 14:15 181 4 gusting 11 28.3
2015-Aug-02 14:01 146 1 gusting 13 28.3
2015-Aug-02 13:45 178 6 gusting 11 28.9
2015-Aug-02 13:31 122 3 gusting 13 28.3
2015-Aug-02 13:15 147 5 gusting 10 28.9
2015-Aug-02 13:01 142 5 gusting 12 28.3
2015-Aug-02 12:45 135 4 gusting 9 28.3
2015-Aug-02 12:30 165 6 gusting 10 28.3
2015-Aug-02 12:15 113 6 gusting 10 28.9
2015-Aug-02 12:01 184 3 gusting 12 28.9
2015-Aug-02 11:45 167 6 gusting 10 28.3
2015-Aug-02 11:31 169 4 gusting 9 28.3
2015-Aug-02 11:15 159 5 gusting 8 28.3
2015-Aug-02 11:01 200 3 gusting 8 27.8
2015-Aug-02 10:45 175 4 gusting 7 28.3
2015-Aug-02 10:31 152 6 gusting 9 28.3
2015-Aug-02 10:15 171 6 gusting 10 28.3
2015-Aug-02 10:01 192 6 gusting 10 28.3
2015-Aug-02 09:45 178 6 gusting 11 28.3
2015-Aug-02 09:30 145 5 gusting 10 28.3
2015-Aug-02 09:16 169 4 gusting 10 28.3
2015-Aug-02 09:01 159 6 gusting 13 28.3
2015-Aug-02 08:46 148 6 gusting 13 28.3
2015-Aug-02 08:30 175 5 gusting 10 28.3
2015-Aug-02 08:15 161 2 gusting 9 28.3
2015-Aug-02 08:01 150 6 gusting 10 27.8
2015-Aug-02 07:45 227 2 gusting 6 27.8
2015-Aug-02 07:30 227 0 gusting 6 27.2
2015-Aug-02 07:15 227 27.2
2015-Aug-02 07:01 227 1 gusting 5 26.7
2015-Aug-02 06:45 227 0 gusting 6 26.1
2015-Aug-02 06:30 226 0 gusting 5 25.6
2015-Aug-02 06:15 217 0 gusting 5 25.0
2015-Aug-02 06:01 217 25.0
2015-Aug-02 05:45 216 1 gusting 4 25.0
2015-Aug-02 05:31 213 24.4
2015-Aug-02 05:16 213 24.4
2015-Aug-02 05:01 213 0 gusting 3 25.0
2015-Aug-02 04:45 213 25.0
2015-Aug-02 04:30 213 25.0
2015-Aug-02 04:16 213 25.0
2015-Aug-02 04:01 213 25.0
2015-Aug-02 03:45 213 25.0
2015-Aug-02 03:30 213 0 gusting 3 25.0
2015-Aug-02 03:16 213 2 gusting 5 25.6
2015-Aug-02 03:01 213 25.6
2015-Aug-02 02:45 213 25.6
2015-Aug-02 02:31 213 25.6
2015-Aug-02 02:15 213 25.0
2015-Aug-02 02:01 208 1 gusting 5 25.6
2015-Aug-02 01:45 179 25.6
2015-Aug-02 01:30 179 26.1
2015-Aug-02 01:15 179 25.6
2015-Aug-02 01:01 179 0 gusting 3 25.6
2015-Aug-02 00:45 179 25.0
2015-Aug-02 00:31 179 25.0
2015-Aug-02 00:15 179 25.0
2015-Aug-02 00:01 179 26.7
2015-Aug-01 23:45 179 26.1
2015-Aug-01 23:30 179 25.6
2015-Aug-01 23:15 179 26.7
2015-Aug-01 23:01 179 26.1
2015-Aug-01 22:45 179 25.6
2015-Aug-01 22:30 179 25.0
2015-Aug-01 22:15 179 26.1
2015-Aug-01 22:01 179 26.7
2015-Aug-01 21:45 179 26.7
2015-Aug-01 21:31 179 26.7
2015-Aug-01 21:16 179 0 gusting 5 27.2
2015-Aug-01 21:01 179 0 gusting 3 27.2
2015-Aug-01 20:45 179 27.2
2015-Aug-01 20:30 179 27.2
2015-Aug-01 20:16 179 0 gusting 5 27.2
2015-Aug-01 20:01 179 27.2
2015-Aug-01 19:46 179 26.7
2015-Aug-01 19:30 179 26.1
2015-Aug-01 19:15 179 26.1
2015-Aug-01 19:01 179 25.6
2015-Aug-01 18:45 179 25.6
2015-Aug-01 18:31 179 25.6
2015-Aug-01 18:15 179 25.6
2015-Aug-01 18:01 179 1 gusting 5 25.6
2015-Aug-01 17:46 179 0 gusting 5 26.1
2015-Aug-01 17:30 179 1 gusting 6 25.6
2015-Aug-01 17:15 179 3 gusting 6 26.7
2015-Aug-01 17:01 179 4 gusting 6 26.7